Clarksville, TN

8:45 AM CDT on May 21, 2018 (GMT -0500)
Outlaw

Weather History for KCKV - February, 2012

Change the Weather History Date:

Thursday, February 23, 2012

  Actual Average Record
Temperature  
Mean Temperature 61 °F 42 °F  
Max Temperature 77 °F 53 °F 79 °F (1982)
Min Temperature 45 °F 32 °F 10 °F (1968)
Degree Days  
Heating Degree Days 4    
Month to date heating degree days 513  
Since 1 July heating degree days 2619  
Cooling Degree Days 0    
Month to date cooling degree days 0  
Year to date cooling degree days  
Growing Degree Days 10 (Base 50)    
Moisture  
Dew Point 51 °F    
Average Humidity 71    
Maximum Humidity 100    
Minimum Humidity 41    
Precipitation  
Precipitation 0.00 in 0.14 in 1.90 in (1975)
Month to date precipitation 1.00 3.50  
Year to date precipitation 6.81  
Sea Level Pressure  
Sea Level Pressure 29.46 in    
Wind  
Wind Speed 11 mph (South)    
Max Wind Speed 30 mph    
Max Gust Speed 40 mph    
Visibility 6 miles    
Events Fog , Thunderstorm    
T = Trace of Precipitation, MM = Missing Value Source: NWS Daily Summary

Daily Weather History Graph

Daily Weather History Graph

Search for Another Location

Airport or City:

Astronomy

Feb. 23, 2012 Rise Set
Actual Time 6:28 AM CST 5:37 PM CST
Civil Twilight 6:02 AM CST 6:04 PM CST
Nautical Twilight 5:32 AM CST 6:34 PM CST
Astronomical Twilight 5:02 AM CST 7:04 PM CST
Moon 6:59 AM CST (2/23) 7:37 PM CST (2/23)
Length of Visible Light 12h 01m
Length of Day
11h 09m
Waxing Crescent, 3% of the Moon is Illuminated
Feb 23
Waxing Crescent
Feb 29
First Quarter
Mar 8
Full
Mar 14
Last Quarter
Mar 22
New

Hourly Weather History & Observations

Time (CST) Temp. Windchill Dew Point Humidity Pressure Visibility Wind Dir Wind Speed Gust Speed Precip Events Conditions
12:52 AM 57.0 °F - 53.1 °F 87% 29.52 in 10.0 mi West 10.4 mph - N/A   Clear
1:52 AM 55.9 °F - 51.1 °F 84% 29.53 in 10.0 mi NW 6.9 mph - N/A   Clear
2:52 AM 55.0 °F - 51.1 °F 86% 29.54 in 10.0 mi Calm Calm - N/A   Clear
3:52 AM 48.9 °F - 48.0 °F 97% 29.54 in 4.0 mi Calm Calm - N/A   Clear
4:26 AM 48.2 °F - 48.2 °F 100% 29.54 in 1.8 mi Calm Calm - N/A   Clear
4:52 AM 48.9 °F - 48.0 °F 97% 29.51 in 3.0 mi East 6.9 mph - N/A   Clear
5:04 AM 46.4 °F 44.3 °F 46.4 °F 100% 29.51 in 1.5 mi ESE 4.6 mph - N/A   Clear
5:16 AM 48.2 °F - 48.2 °F 100% 29.54 in 3.0 mi South 4.6 mph - N/A   Clear
5:35 AM 48.2 °F - 48.2 °F 100% 29.54 in 1.8 mi South 3.5 mph - N/A   Clear
5:43 AM 46.4 °F 45.2 °F 46.4 °F 100% 29.53 in 0.5 mi SE 3.5 mph - N/A Fog Fog
5:52 AM 46.0 °F 44.8 °F 46.0 °F 100% 29.53 in 0.2 mi ESE 3.5 mph - N/A Fog Fog
6:00 AM 48.2 °F - 48.2 °F 100% 29.54 in 0.5 mi Calm Calm - N/A Fog Fog
6:12 AM 46.4 °F - 46.4 °F 100% 29.54 in 0.2 mi Calm Calm - N/A Fog Fog
6:52 AM 45.0 °F 42.6 °F 45.0 °F 100% 29.55 in 0.2 mi SE 4.6 mph - N/A Fog Fog
7:39 AM 50.0 °F - 50.0 °F 100% 29.56 in 1.2 mi ESE 5.8 mph - N/A   Scattered Clouds
7:49 AM 51.8 °F - 51.8 °F 100% 29.55 in 2.0 mi ESE 5.8 mph - N/A   Partly Cloudy
7:52 AM 52.0 °F - 52.0 °F 100% 29.55 in 2.5 mi ESE 5.8 mph - N/A   Partly Cloudy
8:02 AM 51.8 °F - 51.8 °F 100% 29.55 in 4.0 mi SE 6.9 mph - N/A   Clear
8:52 AM 55.9 °F - 53.1 °F 90% 29.52 in 9.0 mi SSE 6.9 mph - N/A   Clear
9:52 AM 62.1 °F - 53.1 °F 72% 29.48 in 10.0 mi SSE 9.2 mph - N/A   Clear
10:52 AM 66.9 °F - 52.0 °F 59% 29.43 in 10.0 mi SSE 11.5 mph - N/A   Clear
11:52 AM 70.0 °F - 52.0 °F 53% 29.38 in 10.0 mi South 24.2 mph 34.5 mph N/A   Clear
12:52 PM 70.0 °F - 55.9 °F 61% 29.33 in 10.0 mi SSW 23.0 mph 32.2 mph N/A   Scattered Clouds
1:52 PM 75.0 °F - 55.0 °F 50% 29.30 in 10.0 mi SW 19.6 mph 28.8 mph N/A   Partly Cloudy
2:52 PM 75.9 °F - 51.1 °F 42% 29.29 in 10.0 mi SSW 19.6 mph 29.9 mph N/A   Scattered Clouds
3:52 PM 75.9 °F - 51.1 °F 42% 29.29 in 10.0 mi SW 13.8 mph 34.5 mph N/A   Clear
4:52 PM 75.9 °F - 51.1 °F 42% 29.30 in 10.0 mi SW 15.0 mph 23.0 mph N/A   Clear
5:52 PM 73.9 °F - 48.9 °F 41% 29.33 in 10.0 mi West 10.4 mph 20.7 mph N/A   Clear
6:52 PM 72.0 °F - 51.1 °F 48% 29.36 in 10.0 mi WSW 12.7 mph - N/A   Clear
7:52 PM 71.1 °F - 52.0 °F 51% 29.37 in 10.0 mi SW 8.1 mph - N/A   Partly Cloudy
8:47 PM 71.6 °F - 51.8 °F 50% 29.38 in 10.0 mi SW 10.4 mph - N/A Thunderstorm Mostly Cloudy
8:52 PM 71.1 °F - 52.0 °F 51% 29.37 in 10.0 mi SW 10.4 mph - N/A Thunderstorm Mostly Cloudy
9:15 PM 71.6 °F - 51.8 °F 50% 29.39 in 10.0 mi SW 10.4 mph 19.6 mph N/A   Scattered Clouds
9:30 PM 71.6 °F - 53.6 °F 53% 29.40 in 10.0 mi SW 20.7 mph 28.8 mph N/A Thunderstorm Thunderstorm
9:52 PM 71.1 °F - 53.1 °F 53% 29.39 in 10.0 mi SW 13.8 mph - N/A   Mostly Cloudy
11:52 PM 66.9 °F - 52.0 °F 59% 29.42 in 10.0 mi West 13.8 mph 21.9 mph N/A   Clear